Location: Dead Woman Crossing
(43.5369°N, 106.3228°W)
Time: 21:59:21
(UTC+00:00)

O/OREOS (USA 219) - Pass Details

Date: 04 July 2022
Orbit: 621 x 646 km, 72.0° (Epoch: 22 May)

Event Time Altitude Azimuth Distance (km) Brightness Sun altitude
Rises 08:20:43 0° 317° (NW) 2,964 ? -21.6°
Reaches altitude 10° 08:24:02 10° 292° (WNW) 2,049 ? -21.4°
Enters shadow 08:25:32 13° 273° (W) 1,834 ? -21.4°
